Weather History for KCNI - October, 2012

Change the Weather History Date:

Friday, October 5, 2012

  Actual Average (KGVL) Record (KGVL)
Temperature  
Mean Temperature 66 °F 65 °F  
Max Temperature 80 °F 75 °F 96 °F (1954)
Min Temperature 51 °F 55 °F 36 °F (1968)
Degree Days  
Heating Degree Days 0 2  
Month to date heating degree days 10  
Since 1 July heating degree days 23  
Cooling Degree Days 0 2  
Month to date cooling degree days 13  
Year to date cooling degree days 1554  
Growing Degree Days 16 (Base 50)    
Moisture  
Dew Point 49 °F    
Average Humidity 62    
Maximum Humidity 88    
Minimum Humidity 24    
Precipitation  
Precipitation 0.00 in 0.17 in 1.70 in (1964)
Month to date precipitation 0.88  
Year to date precipitation 41.81  
Sea Level Pressure  
Sea Level Pressure 30.16 in    
Wind  
Wind Speed 1 mph ()    
Max Wind Speed 9 mph    
Max Gust Speed -    
Visibility 7.7 miles    
Events      
T = Trace of Precipitation, MM = Missing Value Source: Averaged Metar Reports

Daily Weather History Graph

Daily Weather History Graph

Search for Another Location

Airport or City:

Trip Planner

Search our weather history database for the weather conditions in past years. The results will help you decide how hot, cold, wet, or windy it might be!

Date:

Astronomy

Oct. 05, 2012 Rise Set
Actual Time 7:35 AM EDT 7:15 PM EDT
Civil Twilight 7:10 AM EDT 7:40 PM EDT
Nautical Twilight 6:41 AM EDT 8:09 PM EDT
Astronomical Twilight 6:12 AM EDT 8:38 PM EDT
Moon 10:50 PM EDT (10/5) 12:30 PM EDT (10/5)
Length of Visible Light 12h 30m
Length of Day
11h 40m
Waning Gibbous, 74% of the Moon is Illuminated
Oct 5
Waning Gibbous
Oct 8
Last Quarter
Oct 15
New
Oct 21
First Quarter
Oct 29
Full

Hourly Weather History & Observations

Time (EDT) Temp. Dew Point Humidity Pressure Visibility Wind Dir Wind Speed Gust Speed Precip Events Conditions
12:15 AM 57.2 °F 51.8 °F 82% 30.26 in 4.0 mi Calm Calm - N/A   Haze
12:55 AM 55.4 °F 51.8 °F 88% 30.25 in 4.0 mi NNW 3.5 mph - N/A   Haze
1:15 AM 55.4 °F 51.8 °F 88% 30.24 in 4.0 mi Calm Calm - N/A   Haze
1:35 AM 55.4 °F 51.8 °F 88% 30.24 in 3.0 mi Calm Calm - N/A   Haze
1:55 AM 55.4 °F 51.8 °F 88% 30.23 in 4.0 mi NNW 3.5 mph - N/A   Clear
2:15 AM 55.4 °F 51.8 °F 88% 30.23 in 5.0 mi Calm Calm - N/A   Haze
2:35 AM 55.4 °F 51.8 °F 88% 30.22 in 3.0 mi Calm Calm - N/A   Clear
2:55 AM 55.4 °F 51.8 °F 88% 30.22 in 4.0 mi Calm Calm - N/A   Clear
3:15 AM 55.4 °F 50.0 °F 82% 30.21 in 3.0 mi Calm Calm - N/A   Haze
3:35 AM 53.6 °F 50.0 °F 88% 30.21 in 4.0 mi NW 3.5 mph - N/A   Clear
3:55 AM 55.4 °F 51.8 °F 88% 30.21 in 4.0 mi Calm Calm - N/A   Clear
4:15 AM 53.6 °F 50.0 °F 88% 30.20 in 4.0 mi Calm Calm - N/A   Clear
4:35 AM 53.6 °F 50.0 °F 88% 30.20 in 3.0 mi Calm Calm - N/A   Clear
4:55 AM 55.4 °F 50.0 °F 82% 30.20 in 10.0 mi Calm Calm - N/A   Clear
5:15 AM 55.4 °F 50.0 °F 82% 30.21 in 10.0 mi SSE 3.5 mph - N/A   Clear
5:35 AM 53.6 °F 50.0 °F 88% 30.21 in 7.0 mi Calm Calm - N/A   Clear
5:55 AM 51.8 °F 46.4 °F 82% 30.21 in 3.0 mi Calm Calm - N/A   Haze
6:15 AM 53.6 °F 50.0 °F 88% 30.21 in 5.0 mi Calm Calm - N/A   Haze
6:35 AM 53.6 °F 50.0 °F 88% 30.21 in 7.0 mi Calm Calm - N/A   Clear
6:55 AM 53.6 °F 48.2 °F 82% 30.21 in 4.0 mi Calm Calm - N/A   Haze
7:15 AM 51.8 °F 48.2 °F 88% 30.22 in 3.0 mi Calm Calm - N/A   Clear
7:35 AM 53.6 °F 48.2 °F 82% 30.22 in 5.0 mi Calm Calm - N/A   Haze
7:55 AM 53.6 °F 48.2 °F 82% 30.22 in 2.5 mi Calm Calm - N/A   Haze
8:15 AM 51.8 °F 48.2 °F 88% 30.22 in 2.0 mi Calm Calm - N/A   Clear
8:35 AM 53.6 °F 48.2 °F 82% 30.22 in 4.0 mi Calm Calm - N/A   Haze
8:55 AM 53.6 °F 50.0 °F 88% 30.22 in 5.0 mi Calm Calm - N/A   Clear
9:15 AM 57.2 °F 51.8 °F 82% 30.22 in 7.0 mi Calm Calm - N/A   Clear
9:35 AM 60.8 °F 51.8 °F 72% 30.22 in 10.0 mi Calm Calm - N/A   Clear
9:55 AM 62.6 °F 51.8 °F 68% 30.22 in 10.0 mi Calm Calm - N/A   Clear
10:15 AM 66.2 °F 51.8 °F 60% 30.22 in 10.0 mi Calm Calm - N/A   Clear
10:35 AM 69.8 °F 51.8 °F 53% 30.22 in 10.0 mi Calm Calm - N/A   Clear
10:55 AM 71.6 °F 51.8 °F 50% 30.21 in 10.0 mi Calm Calm - N/A   Clear
11:15 AM 71.6 °F 50.0 °F 46% 30.21 in 10.0 mi Calm Calm - N/A   Clear
11:35 AM 73.4 °F 50.0 °F 44% 30.20 in 10.0 mi North 3.5 mph - N/A   Clear
11:55 AM 75.2 °F 42.8 °F 31% 30.20 in 10.0 mi Calm Calm - N/A   Clear
12:35 PM 77.0 °F 42.8 °F 29% 30.19 in 10.0 mi Calm Calm - N/A   Clear
12:55 PM 77.0 °F 41.0 °F 28% 30.18 in 10.0 mi Calm Calm - N/A   Clear
1:15 PM 77.0 °F 42.8 °F 29% 30.17 in 10.0 mi Calm Calm - N/A   Clear
1:35 PM 78.8 °F 41.0 °F 26% 30.16 in 10.0 mi Calm Calm - N/A   Clear
1:55 PM 78.8 °F 41.0 °F 26% 30.15 in 10.0 mi Calm Calm - N/A   Clear
2:35 PM 78.8 °F 42.8 °F 28% 30.13 in 10.0 mi Calm Calm - N/A   Scattered Clouds
2:55 PM 78.8 °F 42.8 °F 28% 30.12 in 10.0 mi Calm Calm - N/A   Clear
3:15 PM 78.8 °F 42.8 °F 28% 30.11 in 10.0 mi Calm Calm - N/A   Clear
3:35 PM 80.6 °F 41.0 °F 24% 30.11 in 10.0 mi SSW 6.9 mph - N/A   Clear
3:55 PM 80.6 °F 41.0 °F 24% 30.09 in 10.0 mi WSW 3.5 mph - N/A   Clear
4:15 PM 80.6 °F 41.0 °F 24% 30.09 in 10.0 mi SW 6.9 mph - N/A   Clear
4:35 PM 80.6 °F 41.0 °F 24% 30.09 in 10.0 mi SSW 9.2 mph - N/A   Clear
4:55 PM 80.6 °F 41.0 °F 24% 30.08 in 10.0 mi SW 8.1 mph - N/A   Clear
5:15 PM 78.8 °F 41.0 °F 26% 30.07 in 10.0 mi SW 6.9 mph - N/A   Clear
5:35 PM 77.0 °F 42.8 °F 29% 30.07 in 10.0 mi Calm Calm - N/A   Clear
5:55 PM 77.0 °F 42.8 °F 29% 30.07 in 10.0 mi Calm Calm - N/A   Clear
6:15 PM 77.0 °F 42.8 °F 29% 30.07 in 10.0 mi Calm Calm - N/A   Clear
6:35 PM 75.2 °F 44.6 °F 34% 30.06 in 10.0 mi Calm Calm - N/A   Clear
6:55 PM 75.2 °F 44.6 °F 34% 30.05 in 10.0 mi Calm Calm - N/A   Clear
7:15 PM 73.4 °F 46.4 °F 38% 30.05 in 10.0 mi Calm Calm - N/A   Clear
7:35 PM 69.8 °F 51.8 °F 53% 30.06 in 10.0 mi Calm Calm - N/A   Clear
7:55 PM 68.0 °F 51.8 °F 56% 30.06 in 10.0 mi Calm Calm - N/A   Clear
8:15 PM 66.2 °F 51.8 °F 60% 30.06 in 10.0 mi Calm Calm - N/A   Clear
8:35 PM 64.4 °F 53.6 °F 68% 30.07 in 10.0 mi Calm Calm - N/A   Clear
8:55 PM 64.4 °F 53.6 °F 68% 30.07 in 10.0 mi Calm Calm - N/A   Clear
9:15 PM 64.4 °F 53.6 °F 68% 30.07 in 10.0 mi Calm Calm - N/A   Clear
9:35 PM 64.4 °F 53.6 °F 68% 30.06 in 10.0 mi Calm Calm - N/A   Clear
9:55 PM 62.6 °F 53.6 °F 72% 30.06 in 10.0 mi Calm Calm - N/A   Clear
10:15 PM 62.6 °F 53.6 °F 72% 30.07 in 10.0 mi Calm Calm - N/A   Clear
10:35 PM 62.6 °F 55.4 °F 77% 30.07 in 10.0 mi Calm Calm - N/A   Clear
10:55 PM 60.8 °F 53.6 °F 77% 30.08 in 5.0 mi Calm Calm - N/A   Haze
11:15 PM 59.0 °F 53.6 °F 82% 30.09 in 5.0 mi NNW 3.5 mph - N/A   Haze
11:35 PM 60.8 °F 55.4 °F 82% 30.09 in 10.0 mi Calm Calm - N/A   Clear
11:55 PM 62.6 °F 53.6 °F 72% 30.09 in 10.0 mi Calm Calm - N/A   Clear